Location: Unspecified
(0.0000°N, 0.0000°E)
Time: 19:46:21
(UTC+02:00)

ISS - Visible Passes

Search period start: 31 August 2015 00:00
Search period end: 10 September 2015 00:00
Orbit: 400 x 402 km, 51.6° (Epoch: 31 August)

Date Brightness Start Highest point End Pass type
(mag) Time Alt. Az. Time Alt. Az. Time Alt. Az.
01 Sep -1.6 07:08:27 10° S 07:11:24 32° SE 07:14:22 10° ENE visible
01 Sep -0.2 20:19:38 10° WSW 20:21:02 12° SW 20:22:17 10° SSW visible
02 Sep -0.3 06:17:11 11° SE 06:18:05 12° SE 06:19:34 10° E visible
03 Sep -3.3 06:59:48 30° WSW 07:01:08 56° NW 07:04:19 10° NNE visible
04 Sep -0.8 06:09:41 21° ENE 06:09:41 21° ENE 06:10:58 10° NE visible
05 Sep -1.0 06:52:07 13° NNW 06:52:07 13° NNW 06:52:48 10° NNW visible
